Albemarle, NC

12:56 PM EDT on September 15, 2019 (GMT -0400)
Stanly County

Weather History for KVUJ - August, 2019

Change the Weather History Date:

Sunday, August 18, 2019

  Actual Average (KHBI) Record (KHBI)
Temperature  
Mean Temperature 81 °F -  
Max Temperature 93 °F 86 °F 105 °F (1988)
Min Temperature 69 °F 67 °F 57 °F (1981)
Cooling Degree Days 16    
Growing Degree Days 31 (Base 50)    
Moisture  
Dew Point 72 °F    
Average Humidity 78    
Maximum Humidity 100    
Minimum Humidity 46    
Precipitation  
Precipitation 0.00 in - - ()
Sea Level Pressure  
Sea Level Pressure 30.06 in    
Wind  
Wind Speed 1 mph (SSW)    
Max Wind Speed 12 mph    
Max Gust Speed 18 mph    
Visibility 10 miles    
Events Thunderstorm    
Averages and records for this station are not official NWS values.
T = Trace of Precipitation, MM = Missing Value Source: NWS Daily Summary

Daily Weather History Graph

Daily Weather History Graph

Search for Another Location

Airport or City:

Astronomy

Aug. 18, 2019 Rise Set
Actual Time 6:42 AM EDT 8:06 PM EDT
Civil Twilight 6:15 AM EDT 8:32 PM EDT
Nautical Twilight 5:43 AM EDT 9:04 PM EDT
Astronomical Twilight 5:09 AM EDT 9:38 PM EDT
Moon 10:06 PM EDT (8/18) 9:21 AM EDT (8/18)
Length of Visible Light 14h 17m
Length of Day
13h 24m
Waning Gibbous, 91% of the Moon is Illuminated
Aug 18
Waning Gibbous
Aug 23
Last Quarter
Aug 30
New
Sep 5
First Quarter
Sep 14
Full

Hourly Weather History & Observations

Time (EDT) Temp. Heat Index Dew Point Humidity Pressure Visibility Wind Dir Wind Speed Gust Speed Precip Events Conditions
12:15 AM 73.0 °F - 71.8 °F 96% 30.05 in 10.0 mi Calm Calm - N/A   Clear
12:35 AM 72.5 °F - 71.6 °F 97% 30.06 in 10.0 mi Calm Calm - N/A   Clear
12:55 AM 72.7 °F - 72.0 °F 98% 30.06 in 10.0 mi Calm Calm - N/A   Clear
1:15 AM 71.8 °F - 71.1 °F 98% 30.07 in 10.0 mi SW 3.5 mph - N/A   Clear
1:35 AM 72.0 °F - 71.6 °F 99% 30.06 in 10.0 mi Calm Calm - N/A   Clear
1:55 AM 71.1 °F - 70.7 °F 99% 30.06 in 10.0 mi Calm Calm - N/A   Clear
2:15 AM 72.0 °F - 71.6 °F 99% 30.06 in 10.0 mi Calm Calm - N/A   Clear
2:35 AM 70.5 °F - 70.0 °F 98% 30.07 in 10.0 mi Calm Calm - N/A   Scattered Clouds
2:55 AM 70.9 °F - 70.2 °F 98% 30.06 in 10.0 mi Calm Calm - N/A   Mostly Cloudy
3:15 AM 70.9 °F - 70.5 °F 99% 30.05 in 10.0 mi Calm Calm - N/A   Scattered Clouds
3:35 AM 70.3 °F - 70.0 °F 99% 30.05 in 10.0 mi Calm Calm - N/A   Mostly Cloudy
3:55 AM 70.5 °F - 70.2 °F 99% 30.05 in 10.0 mi Calm Calm - N/A   Overcast
4:15 AM 70.9 °F - 70.7 °F 99% 30.05 in 10.0 mi Calm Calm - N/A   Overcast
4:35 AM 71.8 °F - 71.4 °F 99% 30.04 in 10.0 mi Calm Calm - N/A   Overcast
4:55 AM 70.7 °F - 70.3 °F 99% 30.04 in 10.0 mi Calm Calm - N/A   Scattered Clouds
5:15 AM 70.2 °F - 69.8 °F 99% 30.04 in 10.0 mi Calm Calm - N/A   Clear
5:35 AM 70.3 °F - 70.0 °F 99% 30.04 in 10.0 mi Calm Calm - N/A   Clear
5:55 AM 69.8 °F - 69.6 °F 99% 30.05 in 10.0 mi Calm Calm - N/A   Clear
6:15 AM 69.1 °F - 69.1 °F 100% 30.05 in 10.0 mi Calm Calm - N/A   Clear
6:35 AM 69.1 °F - 69.1 °F 100% 30.05 in 10.0 mi Calm Calm - N/A   Clear
6:55 AM 69.1 °F - 68.7 °F 99% 30.05 in 5.0 mi Calm Calm - N/A   Clear
7:15 AM 69.4 °F - 69.3 °F 99% 30.06 in 10.0 mi Calm Calm - N/A   Clear
7:35 AM 71.2 °F - 70.7 °F 98% 30.07 in 10.0 mi Calm Calm - N/A Thunderstorm Clear
7:55 AM 72.7 °F - 72.0 °F 98% 30.07 in 10.0 mi Calm Calm - N/A   Clear
8:15 AM 74.7 °F - 73.0 °F 95% 30.08 in 10.0 mi SW 3.5 mph - N/A   Clear
8:35 AM 75.9 °F - 73.6 °F 92% 30.09 in 10.0 mi Calm Calm - N/A   Clear
8:55 AM 77.0 °F - 73.8 °F 90% 30.09 in 10.0 mi SSW 3.5 mph - N/A   Clear
9:15 AM 78.8 °F - 74.5 °F 87% 30.09 in 10.0 mi South 3.5 mph - N/A   Clear
9:35 AM 80.6 °F 85.9 °F 74.5 °F 82% 30.09 in 10.0 mi South 3.5 mph - N/A   Clear
9:55 AM 82.0 °F 88.4 °F 74.7 °F 78% 30.09 in 10.0 mi Calm Calm - N/A   Scattered Clouds
10:15 AM 82.9 °F 89.7 °F 74.5 °F 75% 30.09 in 10.0 mi Calm Calm - N/A   Scattered Clouds
10:35 AM 83.8 °F 90.8 °F 73.8 °F 72% 30.09 in 10.0 mi Calm Calm - N/A   Clear
10:55 AM 85.1 °F 92.9 °F 74.5 °F 70% 30.10 in 10.0 mi WSW 3.5 mph - N/A   Scattered Clouds
11:15 AM 84.7 °F 91.7 °F 73.8 °F 69% 30.10 in 10.0 mi SW 5.8 mph - N/A   Clear
11:35 AM 86.5 °F 95.0 °F 74.5 °F 67% 30.11 in 10.0 mi Calm Calm - N/A   Scattered Clouds
11:55 AM 87.4 °F 96.7 °F 75.0 °F 66% 30.10 in 10.0 mi SSW 4.6 mph - N/A   Scattered Clouds
12:15 PM 87.6 °F 97.1 °F 74.8 °F 66% 30.10 in 10.0 mi SSW 3.5 mph - N/A   Mostly Cloudy
12:35 PM 88.3 °F 97.4 °F 74.5 °F 63% 30.10 in 10.0 mi Calm Calm - N/A   Mostly Cloudy
12:55 PM 88.2 °F 96.9 °F 74.1 °F 63% 30.10 in 10.0 mi Calm Calm - N/A   Mostly Cloudy
1:15 PM 88.0 °F 94.7 °F 71.8 °F 59% 30.09 in 10.0 mi WSW 3.5 mph - N/A   Scattered Clouds
1:35 PM 88.7 °F 95.7 °F 72.3 °F 58% 30.09 in 10.0 mi SSW 4.6 mph - N/A   Scattered Clouds
1:55 PM 90.3 °F 98.2 °F 72.5 °F 56% 30.08 in 10.0 mi Calm Calm - N/A   Mostly Cloudy
2:15 PM 90.5 °F 95.5 °F 69.6 °F 50% 30.08 in 10.0 mi South 3.5 mph - N/A   Scattered Clouds
2:35 PM 91.2 °F 97.5 °F 70.7 °F 51% 30.07 in 10.0 mi NNW 3.5 mph - N/A   Scattered Clouds
2:55 PM 92.3 °F 97.0 °F 69.1 °F 46% 30.07 in 10.0 mi Calm Calm - N/A   Mostly Cloudy
3:15 PM 92.3 °F 99.7 °F 72.0 °F 51% 30.05 in 10.0 mi SSE 8.1 mph - N/A   Scattered Clouds
3:35 PM 92.5 °F 99.0 °F 70.7 °F 49% 30.05 in 10.0 mi SSE 3.5 mph - N/A   Scattered Clouds
3:55 PM 93.2 °F 99.4 °F 70.3 °F 47% 30.04 in 10.0 mi Calm Calm - N/A   Scattered Clouds
4:15 PM 93.7 °F 101.1 °F 71.1 °F 48% 30.03 in 10.0 mi South 3.5 mph - N/A   Mostly Cloudy
4:35 PM 93.4 °F 100.9 °F 71.8 °F 49% 30.04 in 10.0 mi South 6.9 mph - N/A   Overcast
4:55 PM 91.8 °F 99.1 °F 71.6 °F 52% 30.04 in 10.0 mi SSE 5.8 mph - N/A   Mostly Cloudy
5:15 PM 91.4 °F 97.8 °F 70.7 °F 51% 30.04 in 10.0 mi SSE 6.9 mph - N/A   Clear
5:35 PM 89.8 °F 96.5 °F 71.8 °F 55% 30.03 in 10.0 mi SE 4.6 mph - N/A   Scattered Clouds
5:55 PM 88.9 °F 96.1 °F 72.5 °F 58% 30.02 in 10.0 mi ESE 3.5 mph - N/A   Mostly Cloudy
6:15 PM 88.7 °F 95.7 °F 72.3 °F 58% 30.02 in 10.0 mi South 9.2 mph 16.1 mph N/A   Overcast
6:35 PM 89.1 °F 96.5 °F 72.7 °F 58% 30.03 in 10.0 mi SSW 11.5 mph 18.4 mph N/A   Mostly Cloudy
6:55 PM 88.0 °F 96.0 °F 73.4 °F 62% 30.03 in 10.0 mi SSW 10.4 mph - N/A   Mostly Cloudy
7:15 PM 85.6 °F 92.6 °F 73.2 °F 66% 30.03 in 10.0 mi SSW 9.2 mph - N/A   Mostly Cloudy
7:35 PM 83.7 °F 89.4 °F 72.5 °F 69% 30.04 in 10.0 mi SSW 5.8 mph - N/A   Scattered Clouds
7:55 PM 82.8 °F 87.4 °F 71.2 °F 68% 30.04 in 10.0 mi Calm Calm - N/A   Clear
8:15 PM 81.3 °F 85.9 °F 72.1 °F 74% 30.04 in 10.0 mi Calm Calm - N/A   Clear
8:35 PM 79.5 °F - 71.6 °F 77% 30.04 in 10.0 mi SW 3.5 mph - N/A   Clear
8:55 PM 79.5 °F - 71.6 °F 77% 30.05 in 10.0 mi Calm Calm - N/A   Clear
9:15 PM 77.7 °F - 71.6 °F 81% 30.06 in 10.0 mi Calm Calm - N/A   Clear
9:35 PM 78.3 °F - 70.9 °F 78% 30.07 in 10.0 mi Calm Calm - N/A   Clear
9:55 PM 77.5 °F - 70.9 °F 80% 30.07 in 10.0 mi Calm Calm - N/A   Clear
10:15 PM 77.7 °F - 69.8 °F 76% 30.07 in 10.0 mi Calm Calm - N/A   Scattered Clouds
10:35 PM 75.4 °F - 70.9 °F 86% 30.08 in 10.0 mi Calm Calm - N/A   Scattered Clouds
10:55 PM 75.4 °F - 71.2 °F 87% 30.08 in 10.0 mi Calm Calm - N/A   Scattered Clouds
11:15 PM 75.2 °F - 71.6 °F 89% 30.08 in 10.0 mi Calm Calm - N/A   Scattered Clouds
11:35 PM 74.7 °F - 71.4 °F 90% 30.07 in 10.0 mi Calm Calm - N/A   Clear
11:55 PM 74.3 °F - 70.7 °F 88% 30.07 in 10.0 mi Calm Calm - N/A   Clear